Location: Napier
(39.4830°S, 176.9170°E)
Time: 22:06:35
(UTC+13:00)

Cosmos 2208 Rocket - Pass Details

Date: 24 January 2019
Orbit: 755 x 805 km, 74.0° (Epoch: 17 October)

Event Time Altitude Azimuth Distance (km) Brightness Sun altitude
Rises 21:59:40 0° 203° (SSW) 3,250 8.5 -14.3°
Reaches altitude 10° 22:02:04 10° 206° (SSW) 2,321 7.6 -14.7°
Maximum altitude 22:07:15 62° 285° (WNW) 868 4.4 -15.4°
Enters shadow 22:11:34 15° 3° (N) 1,993 5.7 -16.0°
